Location: Newark
(42.8200°N, 13.1900°E)
Time: 00:03:01
(UTC+00:00)

STARLINK-1275 - Pass Details

Date: 07 April 2020
Orbit: 378 x 381 km, 53.0° (Epoch: 02 June)

Event Time Altitude Azimuth Distance (km) Brightness Sun altitude
Exits shadow 01:48:08 12° 17° (NNE) 1,284 6.2 -28.6°
Drops below altitude 10° 01:48:45 10° 27° (NNE) 1,413 6.6 -28.5°
Enters shadow 02:46:34 -68° 261° (W) 12,243 10.4 -20.0°
Maximum altitude 03:23:50 15° 10° (N) 1,159 5.7 -13.9°
